Wind_Speed
3 3 4 3 2 1 2 3 5 5 6 6 6 7 7 7 7 8 8 8 8 8 7 7 7 7 7 7 7 7 7 7 6 6 6 7 7 7 7 8 9 10 10
4 4 4 4 3 2 1 2 3 4 4 5 5 5 5 5 6 6 6 6 7 7 6 6 6 6 6 6 6 6 6 6 6 6 6 6 6 6 7 8 8 9 10
5 5 4 4 4 3 1 1 2 2 3 3 3 3 4 4 4 4 5 5 5 5 5 5 5 5 5 4 4 4 4 4 5 5 5 5 5 5 6 6 7 9 9
6 6 5 5 4 4 2 2 1 1 1 1 2 2 3 3 3 3 4 4 4 5 5 5 4 4 4 3 3 3 3 3 3 3 3 4 4 5 6 6 7 8 8
7 7 6 6 5 4 3 2 2 1 0 1 1 2 2 3 3 4 4 4 4 5 5 4 4 3 3 3 2 2 1 1 2 2 2 3 3 4 5 6 6 7 7
8 8 7 7 5 5 4 3 2 2 1 1 2 3 3 4 4 4 5 5 6 6 6 5 4 4 3 3 2 2 1 0 1 1 2 3 3 3 4 5 6 6 6
8 9 8 8 6 5 4 4 3 3 3 3 3 4 5 5 6 6 6 7 7 7 7 7 6 5 4 4 3 3 2 2 2 2 3 3 4 4 4 5 5 6 6
10 10 9 9 7 6 5 5 5 4 4 5 5 5 6 6 7 8 9 9 9 9 9 8 8 7 6 6 5 4 4 3 4 4 4 4 4 5 5 5 5 6 6
11 11 10 8 8 7 6 6 6 6 6 6 7 7 7 8 9 10 10 11 11 11 10 10 9 9 8 7 7 7 6 5 5 5 6 6 6 6 6 6 6 6 6
12 12 11 10 9 8 8 7 8 8 8 8 8 8 8 9 11 11 12 12 12 12 12 12 11 11 10 9 9 9 8 7 6 6 7 7 7 8 8 8 7 7 7
14 13 12 11 11 10 9 8 8 9 9 9 9 9 10 10 11 12 13 13 14 14 14 14 13 12 12 11 11 10 10 9 8 8 9 9 9 9 10 10 10 9 9
15 15 14 12 11 10 9 9 10 9 10 10 10 10 11 12 12 13 14 14 15 15 15 14 13 12 12 12 11 11 11 11 10 10 10 11 11 11 11 11 12 11 11
15 15 14 13 11 9 9 10 11 10 10 10 10 11 12 12 13 13 14 14 15 15 15 14 13 12 12 12 12 12 12 12 11 11 11 12 12 13 13 13 13 13 14
15 16 15 13 12 11 10 10 10 10 9 10 10 10 11 12 12 13 14 14 13 14 13 13 13 13 12 12 12 13 13 13 13 13 13 13 14 15 15 15 15 15 15
17 17 16 14 13 12 12 11 10 10 9 9 9 10 10 11 12 13 13 13 13 13 13 14 13 13 13 13 13 14 14 14 14 14 15 15 15 16 17 17 17 17 18
18 16 16 15 14 13 12 11 9 9 9 9 9 10 11 12 12 12 11 11 12 12 14 14 14 14 14 14 14 14 15 15 15 15 16 17 17 17 18 18 19 19 19
17 16 16 15 14 12 11 10 9 9 9 8 8 9 10 10 10 10 10 10 11 12 13 14 14 15 15 15 15 15 16 16 16 17 17 18 18 18 19 20 21 21 21
18 16 15 15 12 10 9 8 7 7 8 7 7 7 8 9 9 9 9 10 11 12 13 14 14 15 16 17 17 17 17 18 18 19 19 19 20 20 20 21 22 23 22
18 17 14 14 12 9 6 5 5 6 6 6 6 7 8 8 9 9 10 10 11 12 12 13 14 15 15 16 17 18 18 19 19 20 20 20 21 21 22 22 23 24 24
16 14 13 12 10 8 6 4 4 4 5 5 6 6 7 8 9 9 9 10 11 11 11 12 14 15 15 16 17 18 19 19 20 20 21 22 22 23 23 24 24 25 26
13 12 11 11 9 8 6 4 4 3 3 4 5 5 6 7 8 8 9 9 10 11 12 13 14 15 16 17 18 19 19 20 21 22 22 23 23 24 24 25 26 27 28
12 11 10 10 8 7 5 4 3 3 3 3 4 4 5 6 6 7 7 8 10 11 12 14 15 16 17 17 18 19 20 21 21 22 23 24 24 25 26 27 27 28 29
11 10 9 8 7 6 5 4 3 2 2 2 2 3 4 5 6 6 7 8 10 12 13 14 15 16 17 18 19 20 21 21 22 22 23 24 25 25 26 27 28 29 30
9 9 8 7 6 6 5 4 3 2 1 0 1 2 4 5 6 7 8 10 11 13 14 15 16 17 18 19 20 20 21 22 23 23 24 24 25 26 26 27 29 30 31
9 8 7 6 5 5 5 4 3 2 1 0 1 2 4 5 7 8 9 11 13 14 15 16 17 18 19 19 20 21 22 23 23 24 25 25 26 27 27 28 29 30 31
8 8 7 6 6 5 4 3 2 1 0 0 1 3 4 6 8 9 11 12 14 16 17 18 18 19 20 21 21 21 22 23 24 25 26 27 28 28 29 30 30 31 32
Wind_Direction
275 264 261 250 228 168 117 102 92 82 74 67 60 56 51 49 46 44 43 42 41 41 42 44 45 44 44 44 49 55 60 65 68 72 79 84 87 94 103 109 111 113 116
272 269 258 247 236 211 146 118 104 89 77 69 63 58 51 47 44 41 39 37 35 32 33 36 38 38 40 42 45 52 58 64 70 72 82 86 89 96 106 115 117 117 121
271 275 266 250 242 233 199 170 134 106 85 70 59 53 45 37 35 34 31 27 26 22 19 20 24 26 27 30 37 45 57 65 71 77 83 89 95 102 111 123 128 128 128
260 265 261 248 245 243 220 205 173 129 99 59 42 31 24 18 16 14 9 6 7 7 3 5 10 12 10 14 21 34 54 71 82 88 93 98 105 110 119 129 136 137 135
257 257 257 251 245 243 232 223 219 214 280 4 356 343 337 338 340 344 343 339 339 343 342 343 348 350 347 351 358 8 38 74 104 114 122 120 121 123 130 139 142 143 142
255 252 251 251 247 243 244 237 232 237 261 289 310 311 309 312 319 323 324 323 323 325 327 326 327 328 325 322 323 317 305 304 195 173 161 160 149 146 149 152 155 151 151
253 251 247 242 237 236 242 244 234 236 251 269 285 292 296 297 301 305 311 313 315 316 316 314 313 310 307 306 303 294 282 270 249 223 197 187 179 172 171 172 166 163 164
247 248 245 236 229 227 232 243 245 244 254 267 275 282 288 292 293 295 297 301 305 306 305 303 302 299 297 294 290 287 281 274 255 238 223 209 199 193 189 188 184 181 179
246 242 242 234 227 227 231 242 249 251 257 265 273 280 288 292 290 291 291 291 295 296 295 293 291 290 288 286 283 281 279 274 262 246 235 225 216 209 204 203 202 199 194
243 239 239 235 232 231 236 241 246 253 257 263 269 280 287 291 289 287 286 286 289 290 287 285 285 282 280 278 278 277 272 268 263 250 239 233 227 221 215 213 212 211 208
243 232 233 230 229 230 237 242 245 254 258 259 263 270 279 286 288 286 284 284 284 286 282 279 279 281 277 276 274 272 270 266 265 256 243 237 233 229 225 221 219 219 217
241 233 234 225 224 225 234 243 252 257 257 257 262 268 274 280 286 287 285 284 283 283 282 279 280 284 280 276 274 271 268 264 262 256 247 244 240 236 232 227 225 224 224
235 229 225 221 221 228 237 247 254 254 253 257 264 271 275 279 285 288 286 285 286 284 281 279 280 280 279 276 270 268 266 261 260 257 251 249 247 243 238 234 231 229 229
227 223 216 215 221 231 240 251 258 251 253 259 264 273 277 278 283 285 284 284 283 285 282 280 277 278 278 276 274 270 265 260 258 256 254 254 253 249 244 240 237 234 233
216 213 214 217 225 232 241 251 257 251 254 255 261 270 278 279 285 287 286 283 280 281 283 282 280 278 281 280 276 271 264 261 257 257 257 256 256 253 248 243 241 239 236
205 206 212 218 225 231 238 245 247 252 257 258 264 270 275 281 288 292 290 284 282 281 282 281 277 275 278 279 276 273 269 262 258 259 258 256 256 254 249 246 243 240 239
203 205 208 214 223 231 239 240 248 256 258 263 267 272 278 283 288 292 295 292 284 281 283 281 278 278 276 276 275 277 273 266 262 261 260 259 257 255 253 249 246 244 244
201 200 203 211 217 223 230 234 245 249 257 266 273 277 280 285 289 295 298 297 291 287 285 284 283 282 278 275 275 275 275 270 267 265 264 261 260 257 256 253 249 247 246
196 196 200 207 206 209 212 222 237 242 251 265 276 285 287 290 292 294 296 297 296 293 290 288 287 286 284 280 279 277 276 275 272 269 265 263 262 260 257 254 250 248 248
191 191 191 195 194 195 202 217 232 236 249 264 281 294 296 299 299 298 301 305 304 304 301 296 293 292 290 287 284 281 279 277 275 271 269 266 264 261 257 255 251 250 250
181 182 191 194 194 198 206 217 231 251 265 282 296 303 303 306 308 308 311 314 312 311 309 304 300 298 295 293 289 285 282 279 277 274 272 269 266 263 259 256 253 251 250
178 182 185 189 195 199 201 207 217 244 267 287 300 304 308 313 316 316 320 321 319 317 314 312 308 304 300 297 293 290 286 282 279 277 273 270 267 265 261 257 254 251 250
174 178 185 187 186 192 194 196 209 225 257 298 318 331 335 339 336 335 337 333 328 325 320 315 313 309 304 301 297 293 290 287 283 279 275 272 269 266 263 259 256 254 252
169 174 175 174 179 183 183 189 200 207 222 280 339 347 348 353 347 343 339 336 333 329 325 321 317 314 310 305 301 296 292 289 286 282 279 275 271 268 265 260 258 256 253
164 165 165 166 167 170 170 173 176 183 191 285 353 358 353 349 347 344 341 340 338 335 331 327 324 320 316 311 306 301 296 291 287 284 281 277 274 270 267 263 259 257 255
160 159 160 165 167 168 167 168 175 174 171 349 357 356 349 345 344 342 340 338 336 334 330 326 323 321 319 315 310 306 301 295 291 286 282 278 275 271 268 265 262 259 256
Height
5894 5894 5895 5895 5895 5895 5895 5895 5895 5896 5896 5897 5898 5898 5899 5899 5900 5900 5900 5901 5901 5901 5901 5901 5901 5900 5900 5900 5900 5900 5900 5899 5899 5900 5899 5899 5899 5900 5900 5900 5901 5901 5902
5894 5894 5894 5894 5894 5894 5894 5895 5895 5896 5897 5897 5898 5899 5899 5899 5900 5900 5901 5901 5901 5901 5901 5901 5901 5901 5901 5901 5901 5900 5900 5900 5900 5900 5900 5900 5900 5901 5901 5902 5902 5902 5903
5893 5893 5893 5893 5894 5894 5894 5894 5895 5896 5896 5897 5898 5899 5899 5899 5900 5900 5900 5901 5901 5901 5901 5901 5901 5901 5901 5901 5901 5901 5901 5901 5901 5901 5901 5901 5901 5902 5902 5903 5903 5904 5904
5892 5892 5893 5893 5893 5893 5893 5894 5894 5895 5896 5897 5897 5898 5899 5899 5899 5900 5900 5900 5901 5901 5901 5901 5901 5901 5901 5901 5901 5901 5901 5901 5901 5901 5902 5902 5902 5902 5903 5903 5904 5905 5905
5891 5891 5892 5892 5892 5892 5892 5893 5894 5894 5895 5896 5896 5897 5898 5898 5898 5899 5899 5900 5900 5900 5900 5900 5900 5900 5900 5900 5901 5901 5901 5901 5901 5901 5902 5902 5903 5903 5903 5904 5905 5905 5906
5889 5890 5890 5890 5891 5891 5892 5892 5893 5893 5894 5895 5895 5896 5896 5897 5897 5898 5898 5898 5899 5899 5899 5899 5900 5900 5900 5900 5900 5900 5900 5901 5901 5901 5902 5902 5903 5903 5904 5904 5905 5906 5906
5888 5888 5888 5889 5889 5890 5891 5891 5892 5892 5893 5894 5894 5895 5895 5896 5896 5896 5897 5897 5897 5898 5898 5898 5898 5899 5899 5899 5899 5899 5900 5900 5900 5901 5901 5902 5902 5903 5904 5904 5905 5906 5907
5886 5886 5886 5887 5887 5888 5889 5890 5891 5891 5892 5892 5893 5893 5894 5894 5894 5895 5895 5896 5896 5896 5896 5897 5897 5897 5898 5898 5898 5898 5898 5899 5899 5900 5900 5901 5902 5902 5903 5904 5905 5906 5906
5883 5884 5884 5885 5886 5886 5887 5888 5889 5889 5890 5891 5891 5892 5892 5892 5893 5893 5893 5893 5894 5894 5894 5894 5895 5895 5896 5896 5896 5896 5897 5897 5898 5898 5899 5900 5901 5901 5902 5904 5904 5905 5906
5880 5881 5882 5883 5884 5884 5885 5886 5887 5888 5888 5888 5889 5890 5890 5890 5890 5890 5890 5891 5891 5891 5892 5892 5892 5893 5894 5894 5894 5894 5895 5895 5896 5896 5897 5898 5899 5900 5901 5902 5903 5905 5906
5877 5878 5879 5880 5881 5882 5883 5884 5884 5885 5886 5886 5887 5887 5888 5888 5888 5888 5888 5888 5888 5888 5888 5889 5889 5890 5891 5891 5892 5892 5893 5893 5894 5894 5895 5897 5898 5899 5900 5901 5902 5903 5905
5873 5875 5876 5878 5879 5880 5881 5882 5882 5882 5883 5884 5884 5885 5885 5885 5885 5885 5885 5885 5885 5885 5885 5885 5886 5887 5888 5888 5889 5890 5890 5891 5892 5892 5893 5894 5896 5896 5898 5899 5900 5902 5903
5869 5871 5873 5875 5876 5878 5878 5879 5879 5880 5880 5881 5882 5882 5882 5883 5883 5883 5883 5882 5882 5882 5883 5883 5884 5885 5885 5886 5886 5887 5888 5889 5889 5890 5891 5892 5893 5894 5895 5896 5898 5899 5901
5865 5868 5870 5872 5874 5875 5876 5877 5877 5877 5878 5879 5879 5880 5880 5880 5880 5880 5880 5880 5880 5880 5880 5881 5881 5882 5883 5883 5884 5884 5885 5886 5886 5887 5888 5889 5890 5891 5892 5893 5895 5896 5898
5862 5865 5868 5870 5871 5872 5873 5874 5874 5875 5875 5876 5876 5877 5877 5878 5878 5877 5877 5877 5877 5877 5878 5878 5879 5879 5880 5880 5881 5881 5881 5882 5883 5884 5885 5886 5887 5888 5889 5890 5891 5893 5895
5858 5861 5864 5867 5869 5870 5871 5871 5872 5873 5873 5874 5874 5874 5875 5875 5875 5875 5875 5875 5875 5875 5875 5875 5876 5877 5877 5878 5878 5878 5878 5879 5880 5881 5881 5882 5883 5884 5885 5886 5888 5889 5891
5855 5858 5861 5864 5866 5868 5869 5870 5870 5871 5871 5871 5872 5872 5873 5873 5873 5873 5873 5873 5873 5873 5873 5873 5873 5874 5874 5875 5875 5875 5875 5875 5876 5877 5877 5878 5879 5880 5881 5882 5884 5885 5887
5852 5856 5859 5862 5864 5866 5867 5868 5868 5869 5869 5870 5870 5871 5871 5871 5872 5872 5872 5871 5871 5871 5871 5871 5871 5871 5871 5871 5871 5871 5871 5871 5872 5873 5873 5874 5874 5875 5876 5877 5879 5880 5882
5851 5854 5857 5860 5862 5864 5865 5866 5867 5867 5868 5868 5869 5869 5870 5870 5870 5870 5870 5869 5869 5869 5868 5868 5868 5868 5867 5867 5867 5867 5867 5867 5868 5868 5869 5869 5870 5870 5871 5872 5873 5875 5877
5850 5853 5856 5859 5861 5862 5864 5865 5865 5866 5866 5867 5867 5868 5868 5868 5868 5868 5868 5867 5867 5866 5866 5865 5865 5864 5864 5864 5863 5863 5863 5863 5863 5863 5864 5864 5865 5865 5866 5867 5868 5870 5871
5849 5852 5855 5858 5860 5861 5862 5863 5864 5865 5866 5866 5866 5866 5867 5867 5866 5866 5865 5865 5864 5864 5863 5863 5862 5861 5860 5860 5859 5859 5859 5858 5858 5858 5858 5859 5859 5860 5860 5861 5862 5864 5866
5848 5852 5855 5857 5858 5859 5861 5862 5864 5864 5865 5865 5865 5865 5865 5865 5865 5864 5864 5863 5862 5862 5861 5860 5859 5858 5857 5856 5855 5854 5854 5854 5853 5853 5853 5853 5853 5854 5854 5855 5856 5858 5859
5849 5852 5854 5856 5857 5859 5860 5862 5863 5864 5864 5864 5864 5864 5864 5863 5863 5862 5862 5861 5861 5860 5858 5857 5856 5854 5853 5852 5851 5850 5849 5848 5847 5847 5847 5847 5847 5847 5848 5848 5849 5851 5852
5850 5852 5854 5856 5857 5858 5860 5861 5862 5863 5863 5863 5864 5863 5863 5863 5862 5861 5860 5860 5859 5857 5856 5854 5853 5851 5849 5848 5846 5845 5844 5843 5842 5841 5841 5840 5840 5840 5841 5841 5842 5843 5844
5850 5852 5854 5855 5857 5858 5859 5860 5861 5862 5862 5862 5862 5862 5862 5861 5861 5860 5859 5858 5856 5855 5853 5851 5849 5847 5845 5843 5842 5840 5839 5837 5836 5835 5834 5834 5833 5833 5833 5834 5834 5835 5837
5851 5852 5854 5855 5857 5858 5859 5860 5860 5861 5861 5861 5861 5861 5861 5860 5859 5858 5857 5856 5854 5852 5850 5848 5846 5844 5841 5839 5837 5835 5833 5832 5830 5829 5827 5826 5826 5826 5826 5826 5826 5827 5828